Temperature
21 21 21 21 21 21 21 22 22 22 23 23 23 22 22 21 20 20 19 19 19 18 18 18 17 17 17 17 16 16 16 16 16 15 16 15 15 15 15 15 15 15 14 14
20 21 21 20 21 21 21 21 22 22 22 23 22 22 21 21 20 20 19 19 19 18 18 18 18 17 17 17 16 16 16 16 16 15 15 15 15 15 15 15 15 14 14 14
20 20 20 20 21 21 21 21 22 22 22 22 22 21 21 21 20 19 19 19 18 18 18 18 18 18 17 17 17 16 16 16 16 15 15 15 15 15 15 15 15 14 14 14
19 19 18 21 21 21 21 21 22 22 22 21 21 21 20 20 19 19 19 18 18 18 18 18 18 18 17 17 17 16 16 16 16 16 15 15 15 15 15 15 15 15 14 14
19 19 20 21 21 20 20 21 21 21 21 20 20 20 20 19 19 19 18 18 18 18 18 18 18 18 17 17 17 16 16 16 16 16 16 15 15 15 15 15 14 14 14 14
18 18 19 20 20 19 20 20 21 20 20 20 20 21 21 19 18 18 18 18 18 18 18 18 18 17 17 17 17 16 16 16 16 16 16 16 15 15 15 15 14 14 14 14
18 18 20 20 19 19 19 20 20 19 19 19 20 20 19 18 18 18 18 18 18 18 18 17 17 17 17 17 17 16 16 16 16 16 16 15 15 15 15 14 14 14 14 14
18 18 19 18 18 19 20 19 18 18 18 18 18 18 18 17 17 17 17 17 17 17 17 17 17 17 17 17 17 16 16 16 16 16 15 15 15 15 14 14 14 14 14 14
18 19 19 17 18 18 17 18 18 18 18 18 18 17 17 17 17 17 17 17 17 17 17 17 17 17 17 17 16 16 16 16 16 15 15 15 15 15 14 14 14 14 13 13
18 18 17 17 16 16 16 17 17 17 17 17 17 17 17 16 16 16 16 16 16 16 16 16 16 17 17 16 16 16 16 16 15 15 15 15 14 14 14 14 14 13 13 13
17 18 17 16 16 15 15 16 16 16 16 16 16 16 16 16 16 16 16 16 16 16 16 16 16 16 16 16 16 15 15 15 15 15 14 14 14 14 14 14 14 13 13 13
17 17 17 16 15 15 15 15 15 15 15 16 16 16 16 16 16 16 15 15 15 15 15 15 15 16 16 16 15 15 15 14 14 14 14 14 14 14 13 13 13 13 13 13
15 15 15 14 14 14 14 14 15 15 15 15 15 15 15 15 15 15 15 15 15 15 15 15 15 15 15 15 15 15 15 14 14 14 14 13 13 13 13 13 13 13 13 12
13 13 14 14 14 14 14 14 14 14 14 14 14 15 15 15 15 15 15 15 15 15 14 14 15 15 15 15 15 14 14 14 14 14 13 13 13 12 12 12 12 12 12 12
12 13 13 13 13 13 13 14 14 14 13 14 14 14 14 15 14 14 14 14 14 14 14 14 14 14 15 14 14 14 14 14 14 13 13 13 12 12 12 12 12 11 11 11
12 12 12 12 12 12 13 13 13 13 13 13 13 14 14 14 14 14 14 14 14 14 14 14 14 14 14 14 14 14 14 14 13 13 13 12 12 12 12 11 11 11 11 11
12 11 11 11 12 12 12 12 12 13 13 13 13 13 13 13 13 13 13 13 13 13 13 13 13 14 14 13 13 13 13 13 13 13 12 12 12 12 11 11 11 11 11 11
11 11 11 11 11 11 11 12 12 12 12 12 12 12 12 12 12 12 12 12 12 12 12 12 13 13 13 13 13 13 13 12 12 12 12 12 12 11 11 11 11 10 10 10
11 11 11 11 11 11 11 11 11 11 12 12 12 12 12 12 12 12 11 12 12 12 12 12 12 12 12 12 12 12 12 12 12 12 11 11 11 11 10 10 10 10 10 10
10 10 10 10 10 10 10 11 11 11 11 11 11 11 11 11 11 11 11 11 11 11 11 11 11 11 11 12 12 12 11 11 11 11 11 11 10 10 10 10 9 9 9 9
10 10 10 10 10 10 10 10 11 11 11 11 10 10 10 10 10 10 10 10 10 10 10 11 11 11 11 11 11 11 11 10 10 10 10 10 10 9 9 9 9 9 9 9
9 9 9 10 10 10 10 10 10 10 10 10 10 10 10 10 9 9 9 9 9 9 10 10 10 10 10 10 10 10 10 10 10 9 9 9 9 9 9 8 8 8 8 8
9 9 9 9 9 9 9 9 9 9 10 10 9 9 9 9 9 9 9 9 9 9 9 9 9 9 9 9 9 9 9 9 9 9 9 9 8 8 8 8 8 8 7 7
8 8 8 8 8 8 8 9 9 9 9 9 9 9 9 9 8 8 8 8 8 8 8 8 9 9 9 9 9 9 8 8 8 8 8 8 8 8 8 7 7 7 7 7
8 8 8 8 8 8 8 8 8 8 8 8 8 8 8 8 8 8 8 8 8 8 8 8 8 8 8 8 8 8 8 8 8 8 8 7 7 7 7 7 7 7 7 6
7 7 7 7 7 7 7 8 8 8 8 8 8 8 8 8 8 8 7 7 7 7 7 7 7 7 7 7 7 7 7 7 7 7 7 7 7 7 7 6 6 6 6 6
7 7 7 6 7 7 7 7 7 7 7 7 7 7 7 7 7 7 7 7 7 7 6 6 6 6 6 6 6 6 6 6 6 6 6 6 6 6 6 6 6 5 5 5
Wind_Speed
9 8 8 10 11 12 14 14 12 11 11 9 7 6 4 3 4 6 7 8 9 9 9 10 10 10 10 10 10 10 9 9 8 8 6 5 5 5 5 4 5 4 4 4
10 9 10 12 14 15 15 15 15 13 13 9 7 5 4 4 5 6 7 8 9 9 9 10 10 10 10 10 10 10 10 9 8 8 7 6 5 5 5 4 4 4 4 4
9 7 8 13 13 14 14 13 13 14 11 6 6 6 6 5 6 7 7 8 8 9 9 10 10 11 11 11 10 10 9 9 8 8 8 7 6 6 6 6 5 5 4 4
6 7 11 6 4 8 11 12 12 11 9 7 7 6 5 5 5 6 6 7 8 8 8 9 10 10 11 11 11 10 9 9 9 8 8 7 7 6 6 6 6 5 5 4
6 8 9 6 5 7 9 10 9 10 8 6 5 5 6 5 5 6 6 6 7 8 8 9 9 10 10 11 10 10 9 9 9 9 8 8 7 7 7 6 6 5 5 4
7 9 7 4 2 3 7 9 6 7 7 6 5 6 5 3 4 5 5 5 5 6 7 8 9 10 11 10 10 10 9 9 9 9 9 9 8 7 6 6 5 5 5 5
11 9 6 2 2 4 7 3 2 6 7 7 8 6 3 2 3 4 4 5 5 6 6 7 8 10 10 10 10 9 9 8 8 8 9 8 7 6 6 6 5 5 5 4
9 9 7 2 4 5 4 3 3 5 6 7 6 4 3 3 3 3 4 5 6 6 5 6 8 10 10 9 8 8 8 8 8 8 7 7 7 6 6 6 6 5 5 4
7 6 2 4 5 4 4 4 4 5 6 7 6 5 4 4 3 3 4 5 5 6 5 5 7 8 9 8 8 8 8 8 8 8 7 7 7 7 6 6 5 5 5 4
7 7 6 6 6 6 6 6 6 5 5 6 6 5 5 4 4 4 4 5 5 6 6 6 6 7 7 7 8 9 9 8 8 8 7 7 6 6 6 6 6 5 5 5
10 8 6 6 7 6 5 5 4 4 4 5 6 5 5 5 4 4 4 4 5 5 6 6 6 6 7 7 8 9 8 8 7 7 7 6 6 5 6 6 6 6 5 5
7 6 6 6 5 5 5 5 4 3 3 3 4 5 5 4 4 4 5 5 4 5 5 5 5 6 6 7 8 8 7 7 6 6 6 6 5 4 3 3 3 4 3 3
7 6 6 6 5 5 5 5 4 4 3 3 3 4 4 4 4 4 5 5 5 4 4 5 5 5 6 7 8 8 7 7 6 6 6 6 6 5 4 3 3 4 4 4
5 4 5 5 5 4 4 4 3 3 2 2 2 3 3 3 4 4 4 4 4 4 4 4 5 5 5 6 7 7 7 6 6 6 6 6 6 6 5 5 4 3 4 5
5 5 6 5 4 3 3 2 2 2 2 1 2 2 3 3 4 3 3 3 4 4 4 4 4 4 4 5 6 6 6 5 5 5 5 5 5 5 5 5 5 4 3 3
5 4 4 4 3 3 2 2 2 2 2 2 1 2 2 2 3 2 3 3 4 4 3 4 4 4 4 5 5 5 4 5 5 5 5 5 5 5 5 5 5 5 5 4
4 4 4 4 4 4 3 3 3 2 2 2 2 2 2 2 2 2 2 2 3 3 3 3 3 3 4 5 5 4 4 5 6 5 5 5 5 6 5 5 5 5 4 3
5 6 6 6 5 5 4 4 3 3 3 2 2 2 2 3 2 2 2 2 2 1 1 2 2 3 4 4 4 3 4 4 5 5 5 5 5 5 5 5 5 5 4 4
4 4 4 4 4 4 4 4 3 3 3 3 3 3 3 3 2 2 2 2 2 2 2 1 1 3 3 4 3 3 4 4 4 4 4 4 5 5 5 5 5 5 4 4
3 3 2 2 3 3 3 3 3 3 3 3 4 3 2 2 2 2 2 2 2 2 2 1 2 2 3 3 3 3 3 4 4 4 4 4 5 4 4 4 4 4 4 4
3 3 2 2 2 2 2 2 3 3 3 4 4 3 3 2 2 2 2 1 1 1 1 0 1 1 2 2 2 2 3 3 3 4 4 4 4 4 4 4 4 4 4 4
3 3 3 2 2 2 2 1 2 3 3 3 3 3 2 2 2 1 1 1 1 1 0 1 1 0 0 1 2 2 2 3 3 3 3 3 4 4 4 4 4 4 3 3
3 3 2 2 2 2 1 1 2 3 3 4 4 3 3 2 2 1 1 1 1 1 1 1 0 1 0 1 1 2 2 2 3 3 3 3 3 3 4 4 3 3 3 3
3 3 2 2 1 0 0 1 1 2 2 3 3 3 3 2 1 1 0 0 0 0 1 0 2 1 1 1 1 1 2 2 2 2 2 2 3 3 3 3 3 3 3 3
2 2 2 1 1 1 1 1 1 1 1 1 2 2 2 1 1 1 1 1 1 0 0 1 1 1 1 1 1 1 1 2 2 2 2 2 2 2 2 2 3 3 3 3
2 2 2 2 1 1 1 2 1 1 1 1 1 1 1 1 1 1 1 1 1 0 0 1 1 1 1 1 1 1 1 1 1 2 2 2 2 2 2 2 2 2 2 3
1 1 1 1 1 1 1 1 1 1 1 2 1 1 1 1 1 1 1 1 1 1 0 1 1 1 1 1 1 1 1 1 1 2 2 2 2 2 2 2 2 2 2 2
Wind_Direction
243 244 235 237 232 225 230 239 248 253 256 264 271 270 263 226 193 182 182 182 183 183 183 182 184 183 183 185 184 183 184 187 190 188 185 191 193 194 194 194 194 187 191 195
239 237 234 242 239 235 237 239 246 254 259 268 271 259 249 225 199 194 193 190 190 188 186 185 184 183 182 184 185 184 185 188 187 186 182 187 191 194 189 189 191 187 196 200
237 233 240 241 233 228 229 230 237 246 253 254 250 243 241 227 212 207 201 195 193 193 191 189 186 182 183 184 183 185 186 184 184 187 186 189 190 191 192 192 192 193 198 200
236 226 236 237 215 222 229 234 235 243 251 249 251 249 243 235 226 217 204 199 198 197 191 189 185 182 182 181 183 187 188 185 186 191 189 189 191 194 198 199 196 201 200 202
230 235 248 241 214 218 230 237 235 238 246 253 258 237 237 240 237 226 213 205 199 196 189 185 183 180 178 179 183 187 190 190 189 190 189 188 192 197 201 201 200 202 200 201
228 234 240 232 202 233 234 238 227 229 233 229 224 235 239 232 227 222 209 198 188 188 185 183 181 178 179 180 185 191 193 193 188 188 188 189 193 193 195 198 200 201 200 206
231 237 248 256 187 193 219 255 266 238 226 218 228 250 270 225 209 201 190 182 175 176 179 180 179 178 183 184 190 193 190 188 185 185 187 187 185 186 187 192 195 200 201 207
223 233 238 145 170 206 260 316 280 246 228 224 235 251 246 219 201 182 177 174 171 171 174 174 176 180 184 190 190 185 181 183 183 184 184 183 179 183 188 189 192 198 203 204
227 237 275 206 226 259 285 280 276 253 239 232 235 242 234 219 202 189 182 174 174 172 169 171 176 184 187 187 182 177 177 180 182 180 181 183 183 183 186 191 197 202 204 210
242 246 251 249 257 271 277 281 279 265 243 232 235 234 221 211 201 192 183 178 177 175 175 176 179 186 190 181 177 177 179 180 181 181 182 184 186 190 192 196 203 207 212 217
245 255 263 257 260 273 279 278 275 268 251 237 234 224 209 201 196 189 181 178 180 184 185 184 183 187 186 182 179 181 182 182 182 184 183 187 188 193 199 202 206 211 214 216
244 257 257 264 266 277 276 272 265 257 255 248 230 213 202 198 193 186 180 177 181 186 187 186 186 186 183 182 184 184 183 185 183 182 183 187 187 187 181 208 184 205 222 229
262 277 272 272 278 274 273 274 268 258 245 240 232 209 196 191 190 185 181 181 183 186 190 188 188 187 182 183 187 189 187 184 183 184 185 189 191 192 191 185 179 198 201 202
256 265 263 260 273 276 273 267 256 254 254 238 214 194 184 180 180 183 186 187 183 183 191 188 186 183 178 179 184 189 187 181 183 186 189 192 195 197 197 197 200 207 199 197
256 263 262 268 269 268 261 236 219 211 206 202 178 176 171 172 176 182 182 179 175 177 184 183 183 183 176 179 183 186 184 183 184 187 190 194 196 197 198 201 206 206 202 183
260 265 265 264 262 262 256 238 225 211 196 189 176 182 176 164 155 158 168 174 176 183 193 192 190 185 178 180 184 188 188 177 182 187 189 191 195 197 200 202 207 208 208 200
249 252 261 268 265 264 258 252 243 226 204 188 184 185 170 151 144 153 169 184 194 197 203 204 195 181 180 183 185 187 186 181 181 191 194 194 196 200 202 204 208 210 211 192
260 256 251 250 247 248 253 253 242 222 207 189 174 169 170 168 171 179 178 177 176 194 225 219 200 185 183 183 186 191 189 190 193 197 197 198 199 203 206 207 208 208 205 184
269 269 267 263 256 250 248 242 235 220 201 183 171 171 180 187 186 187 175 171 187 220 253 249 198 195 186 179 182 193 194 193 194 197 198 191 198 203 206 209 209 208 205 197
270 274 276 276 273 262 254 247 231 212 192 180 173 166 170 179 182 181 177 191 226 253 258 249 202 200 193 181 178 190 192 193 192 194 196 199 201 203 206 208 210 210 207 206
272 273 267 271 283 284 269 246 212 196 188 182 180 177 171 161 161 170 180 211 274 335 303 218 201 201 193 171 175 186 187 190 194 201 203 203 203 205 206 208 210 211 210 211
277 272 273 277 280 289 287 248 198 187 180 176 177 175 164 150 144 150 184 232 263 10 284 230 217 84 123 170 189 188 190 194 199 203 207 209 208 206 206 208 212 213 212 216
288 287 290 284 275 282 282 237 194 186 186 184 183 183 185 183 181 175 217 274 266 314 291 259 97 97 161 189 181 178 191 201 205 208 209 210 211 211 210 209 212 215 215 218
302 305 303 297 285 212 213 227 202 191 187 188 192 191 185 176 188 211 251 224 274 250 276 122 130 164 223 207 190 190 197 206 208 211 211 213 212 213 217 216 211 214 219 222
305 304 295 280 253 248 235 207 179 156 146 161 183 194 196 198 213 215 193 180 163 188 217 167 169 198 214 211 208 204 208 212 208 206 207 208 214 219 222 221 217 214 214 216
303 303 305 294 293 264 224 209 208 193 176 173 179 183 164 161 178 183 163 164 170 172 230 223 215 220 224 221 221 218 213 201 196 198 204 208 212 217 218 216 223 222 216 211
301 311 328 325 317 283 235 204 199 201 200 192 198 217 198 181 169 164 160 167 175 177 200 239 243 235 222 220 227 230 226 221 214 206 209 214 217 219 215 213 214 213 216 210
Height
1506 1507 1509 1510 1511 1512 1513 1511 1513 1510 1508 1507 1507 1510 1511 1513 1514 1516 1518 1520 1521 1524 1527 1529 1532 1534 1537 1540 1542 1545 1547 1549 1551 1554 1555 1557 1558 1560 1561 1562 1562 1563 1564 1564
1508 1506 1508 1509 1508 1508 1509 1508 1508 1507 1507 1505 1507 1509 1510 1511 1512 1514 1515 1517 1519 1522 1524 1526 1529 1531 1534 1537 1540 1542 1544 1547 1549 1551 1553 1554 1556 1557 1559 1559 1560 1561 1562 1562
1508 1506 1508 1508 1501 1503 1504 1503 1504 1505 1503 1504 1506 1507 1508 1509 1510 1511 1513 1515 1516 1519 1521 1523 1526 1529 1531 1534 1537 1540 1542 1544 1546 1548 1550 1552 1553 1555 1556 1557 1558 1559 1560 1560
1507 1509 1515 1498 1495 1497 1499 1499 1499 1500 1501 1503 1504 1505 1507 1507 1508 1509 1510 1512 1513 1516 1518 1521 1524 1526 1529 1532 1534 1537 1539 1541 1543 1545 1547 1549 1550 1552 1553 1555 1556 1556 1557 1557
1507 1507 1501 1494 1494 1496 1497 1497 1497 1498 1499 1501 1502 1503 1503 1504 1505 1506 1507 1509 1510 1512 1515 1518 1521 1523 1526 1529 1531 1533 1535 1537 1539 1541 1543 1545 1547 1549 1550 1552 1553 1554 1554 1555
1505 1507 1504 1493 1492 1494 1497 1496 1493 1495 1497 1499 1501 1499 1499 1501 1502 1503 1505 1506 1508 1510 1512 1515 1517 1520 1523 1525 1528 1530 1532 1534 1536 1538 1540 1542 1544 1546 1547 1549 1550 1551 1552 1552
1502 1501 1494 1490 1493 1495 1499 1494 1492 1493 1495 1498 1498 1498 1499 1499 1500 1501 1502 1504 1505 1507 1509 1511 1514 1517 1520 1522 1524 1527 1529 1531 1533 1535 1537 1539 1541 1542 1544 1546 1547 1548 1549 1549
1498 1499 1497 1492 1493 1493 1492 1491 1492 1492 1493 1495 1496 1497 1497 1498 1498 1499 1500 1501 1503 1504 1506 1509 1511 1514 1516 1519 1521 1524 1526 1528 1530 1532 1534 1536 1537 1539 1541 1542 1544 1545 1545 1545
1491 1492 1490 1491 1491 1492 1491 1491 1491 1491 1491 1493 1493 1494 1495 1496 1496 1497 1498 1499 1500 1502 1504 1506 1508 1511 1513 1516 1518 1521 1523 1524 1526 1528 1530 1532 1534 1535 1537 1539 1540 1541 1542 1542
1490 1488 1489 1490 1490 1490 1490 1490 1489 1489 1489 1490 1490 1491 1492 1493 1494 1495 1496 1497 1498 1500 1502 1504 1506 1508 1510 1513 1515 1517 1519 1521 1523 1525 1527 1528 1530 1532 1533 1534 1536 1537 1538 1538
1486 1486 1487 1487 1487 1488 1487 1487 1487 1487 1487 1487 1488 1488 1490 1491 1492 1493 1494 1495 1496 1498 1499 1501 1503 1505 1507 1509 1512 1514 1516 1518 1520 1521 1523 1524 1526 1528 1529 1530 1532 1533 1533 1534
1484 1484 1485 1485 1485 1485 1484 1484 1484 1484 1484 1485 1485 1486 1487 1488 1489 1491 1492 1493 1494 1496 1497 1499 1500 1502 1504 1506 1508 1510 1512 1514 1516 1517 1519 1520 1522 1524 1525 1527 1528 1529 1530 1531
1484 1483 1483 1483 1483 1483 1482 1482 1482 1482 1482 1482 1483 1484 1484 1485 1487 1488 1489 1491 1492 1493 1495 1496 1498 1499 1501 1503 1505 1507 1509 1511 1512 1513 1515 1516 1518 1519 1520 1522 1524 1525 1526 1527
1481 1481 1480 1480 1480 1480 1480 1479 1479 1480 1480 1480 1480 1481 1482 1483 1484 1486 1487 1488 1490 1491 1492 1494 1495 1496 1498 1500 1502 1504 1506 1507 1508 1510 1511 1513 1514 1516 1517 1518 1519 1520 1521 1522
1478 1478 1478 1477 1477 1477 1477 1477 1477 1477 1478 1478 1478 1479 1479 1480 1481 1483 1484 1486 1487 1489 1490 1491 1492 1494 1495 1497 1499 1500 1502 1503 1505 1506 1508 1509 1511 1512 1514 1515 1516 1516 1517 1518
1474 1475 1475 1475 1474 1474 1474 1474 1474 1474 1475 1475 1476 1476 1477 1478 1479 1480 1482 1483 1484 1486 1487 1488 1489 1491 1492 1494 1496 1497 1499 1500 1501 1503 1504 1506 1507 1509 1510 1511 1512 1513 1513 1514
1471 1471 1471 1472 1471 1471 1471 1471 1472 1472 1472 1473 1473 1474 1475 1476 1477 1478 1479 1480 1482 1483 1484 1486 1487 1488 1489 1491 1493 1494 1495 1497 1498 1500 1501 1502 1503 1505 1506 1507 1508 1509 1510 1510
1468 1468 1469 1468 1468 1468 1468 1469 1469 1470 1470 1470 1471 1472 1472 1473 1474 1475 1476 1477 1479 1480 1481 1483 1484 1485 1486 1488 1489 1491 1492 1493 1494 1496 1497 1498 1499 1501 1502 1503 1504 1505 1505 1506
1465 1465 1465 1465 1465 1465 1466 1466 1466 1467 1467 1468 1469 1469 1470 1471 1472 1473 1474 1475 1476 1477 1478 1479 1480 1482 1483 1485 1486 1487 1488 1489 1491 1492 1493 1494 1495 1496 1498 1499 1499 1500 1501 1502
1462 1462 1461 1461 1462 1462 1462 1462 1463 1463 1464 1465 1466 1467 1467 1468 1469 1470 1471 1472 1473 1474 1475 1476 1477 1478 1480 1481 1482 1483 1484 1486 1487 1488 1489 1490 1491 1492 1493 1494 1495 1496 1497 1498
1459 1458 1458 1458 1458 1459 1459 1459 1460 1461 1462 1463 1464 1464 1465 1466 1466 1467 1468 1469 1470 1471 1472 1472 1473 1475 1476 1478 1478 1479 1481 1482 1483 1484 1485 1486 1487 1488 1489 1490 1491 1492 1492 1493
1456 1455 1455 1455 1455 1455 1455 1456 1457 1458 1459 1460 1461 1462 1463 1463 1464 1465 1465 1467 1467 1468 1469 1470 1471 1472 1473 1474 1475 1476 1477 1478 1479 1480 1481 1482 1483 1484 1485 1486 1486 1487 1488 1489
1453 1453 1453 1452 1452 1452 1453 1454 1455 1456 1457 1458 1459 1460 1461 1461 1462 1463 1463 1464 1465 1466 1466 1467 1468 1469 1470 1470 1471 1472 1473 1474 1475 1476 1477 1478 1479 1480 1480 1481 1482 1483 1484 1484
1451 1450 1450 1450 1450 1450 1451 1452 1453 1453 1454 1455 1457 1458 1459 1459 1460 1461 1462 1462 1463 1463 1464 1465 1465 1466 1467 1467 1468 1469 1470 1470 1471 1472 1473 1474 1475 1475 1476 1477 1477 1478 1479 1480
1449 1449 1448 1448 1448 1449 1449 1450 1450 1451 1452 1453 1455 1456 1457 1457 1458 1459 1459 1460 1460 1461 1461 1462 1463 1463 1464 1465 1465 1466 1466 1467 1467 1468 1469 1470 1470 1471 1472 1472 1473 1473 1474 1475
1447 1447 1447 1447 1447 1447 1447 1448 1448 1449 1450 1451 1452 1453 1454 1455 1456 1457 1457 1458 1458 1458 1459 1459 1460 1460 1461 1461 1462 1462 1463 1463 1464 1464 1465 1466 1466 1467 1467 1468 1468 1469 1469 1470
1446 1445 1445 1445 1445 1445 1445 1446 1446 1447 1448 1449 1450 1451 1452 1452 1453 1454 1454 1455 1455 1456 1456 1456 1457 1457 1457 1458 1458 1459 1459 1460 1460 1461 1461 1462 1462 1463 1463 1463 1464 1464 1465 1465